Home   Weather   Yekaterinburg   Past weeks

Flag for Russia Past Weather in Yekaterinburg, Russia — Yesterday and Last 2 Weeks

Now
1 °F

Passing clouds.


Feels Like: 1 °F
Forecast: 8 / 14 °F
Wind: 1 mph from North

Location: Ekaterinburg

Current Time: Jan 23, 2017 at 1:40:28 am

Latest Report: Jan 23, 2017 at 1:00 am


Visibility: N/A

Pressure: 29.30 "Hg

Humidity: 92%

Dew Point: 0 °F

Location of YekaterinburgLocation

Past Weather in Yekaterinburg — Graph

°F

Yekaterinburg Temperature Yesterday

Maximum temperature yesterday: 14 °F (at 12:00 am)
Minimum temperature yesterday: 5 °F (at 5:00 am)
Average temperature yesterday: 9 °F

High & Low Weather Summary for the Past Weeks

 TemperatureHumidityPressure
High23 °F (Jan 21, 2:00 pm)100% (Jan 15, 3:30 pm)30.63 "Hg (Jan 15, 3:30 pm)
Low-38 °F (Jan 10, 6:00 am)65% (Jan 10, 8:00 am)29.15 "Hg (Jan 21, 6:30 am)
Average1 °F83%30.08 "Hg
* Reported Jan 8 12:00 am — Jan 23 12:30 am, Yekaterinburg, Weather by CustomWeather, © 2017

Note: Actual official high and low records may vary slightly from our data, if they occured in-between our weather recording intervals... More about our weather records

Advertising

Yekaterinburg Weather History for the Previous 24 Hours

Scroll right to see more
 ConditionsComfort  
Time TempWeatherWind HumidityBarometerVisibility
12:30 am
Mon, Jan 23
7 °FLight snow. Passing clouds.6 mph85%29.30 "HgN/A
12:00 am7 °FPassing clouds.8 mph85%29.30 "HgN/A
11:30 pm
Sun, Jan 22
7 °FPassing clouds.10 mph85%29.30 "HgN/A
11:00 pm9 °FPassing clouds.10 mph78%29.27 "HgN/A
10:30 pm7 °FPassing clouds.8 mph85%29.27 "HgN/A
10:00 pm9 °FPassing clouds.10 mph78%29.27 "HgN/A
9:30 pm10 °FLight snow. Passing clouds.10 mph79%29.27 "HgN/A
9:00 pm10 °FLight snow. Passing clouds.10 mph79%29.27 "HgN/A
8:30 pm10 °FLight snow. Passing clouds.6 mph79%29.27 "Hg6 mi
8:00 pm10 °FLight snow. Passing clouds.6 mph79%29.27 "Hg6 mi
7:30 pm10 °FPassing clouds.6 mph79%29.27 "HgN/A
7:00 pm10 °FLight snow. Passing clouds.8 mph79%29.27 "Hg3 mi
6:30 pm12 °FLight snow. Passing clouds.8 mph79%29.27 "Hg6 mi
6:00 pm12 °FLight snow. Passing clouds.6 mph79%29.27 "Hg5 mi
5:30 pm12 °FLight snow. Passing clouds.6 mph85%29.27 "HgN/A
5:00 pm12 °FLight snow. Partly sunny.8 mph85%29.27 "Hg5 mi
4:30 pm12 °FSnow flurries. Partly sunny.6 mph85%29.27 "Hg4 mi
4:00 pm12 °FSnow flurries. Partly sunny.8 mph85%29.27 "Hg3 mi
3:30 pm14 °FPartly sunny.8 mph67%29.27 "HgN/A
3:00 pm14 °FPartly sunny.6 mph67%29.27 "HgN/A
2:30 pm10 °FScattered clouds.8 mph67%29.27 "HgN/A
2:00 pm12 °FScattered clouds.6 mph67%29.30 "HgN/A
1:30 pm12 °FScattered clouds.3 mph67%29.30 "HgN/A
1:00 pm10 °FPassing clouds.6 mph72%29.30 "HgN/A
12:30 pm9 °FPassing clouds.6 mph72%29.33 "HgN/A
12:00 pm9 °FPassing clouds.6 mph72%29.33 "HgN/A
11:30 am9 °FPassing clouds.6 mph78%29.33 "HgN/A
11:00 am5 °FScattered clouds.6 mph78%29.33 "HgN/A
10:30 am7 °FPassing clouds.8 mph78%29.33 "HgN/A
10:00 am7 °FPassing clouds.6 mph85%29.33 "HgN/A
9:30 am7 °FPassing clouds.6 mph85%29.33 "HgN/A
9:00 am7 °FPassing clouds.3 mph85%29.33 "HgN/A
8:30 am7 °FClear.3 mph85%29.33 "Hg10 mi
8:00 am7 °FClear.6 mph85%29.33 "Hg10 mi
7:30 am9 °FClear.8 mph85%29.33 "Hg10 mi
7:00 am7 °FPassing clouds.6 mph85%29.33 "HgN/A
6:30 am9 °FPassing clouds.8 mph78%29.33 "HgN/A
6:00 am9 °FPassing clouds.8 mph85%29.33 "HgN/A
5:30 am5 °FPassing clouds.10 mph85%29.33 "HgN/A
5:00 am5 °FPassing clouds.8 mph92%29.33 "HgN/A
4:30 am7 °FPassing clouds.8 mph92%29.33 "HgN/A
4:00 am7 °FPassing clouds.8 mph92%29.33 "HgN/A
3:30 am9 °FPassing clouds.6 mph92%29.36 "HgN/A
3:00 am7 °FPassing clouds.6 mph92%29.36 "HgN/A
2:30 am7 °FPassing clouds.8 mph85%29.33 "HgN/A
2:00 am9 °FPassing clouds.8 mph85%29.36 "HgN/A
1:30 am9 °FPassing clouds.6 mph78%29.36 "HgN/A
1:00 am10 °FClear.6 mph79%29.36 "Hg10 mi
Weather by CustomWeather, © 2017

See weather overviewHow to use our weather pages